Location: Paris
(48.6709°N, 2.3750°E)
Time: 19:53:35
(UTC+02:00)

CUBESAT XI-V - Pass Details

Date: 27 June 2022
Orbit: 667 x 690 km, 98.1° (Epoch: 08 August)

Event Time Altitude Azimuth Distance (km) Brightness Sun altitude
Exits shadow 04:12:22 16° 206° (SSW) 1,727 ? -11.6°
Maximum altitude 04:15:27 34° 264° (W) 1,108 ? -11.3°
Drops below altitude 10° 04:19:40 10° 329° (NNW) 2,114 ? -10.9°
Sets 04:22:05 0° 339° (NNW) 3,030 ? -10.7°
